This demonstration page uses our WeatherBlox Daily Observations layout. Learn more.

Left ArrowRight Arrow

34.02893, -84.19858

Hourly Observations for June 12, 2020

Temp ( °F °C ) Dew Point ( °F °C ) Humidity (%) Winds ( mph kmh ) Pressure ( in mb ) Visibility ( mi km ) Precip ( " mm )
12:53 am 00:53 Clear 69 20.6 59 15 70 70 NNW 6 9 30.09 1019 10 16 0.00 0.00
1:53 am 01:53 Clear 67 19.4 59 15 76 76 NNW 6 9 30.09 1019 10 16 0.00 0.00
2:53 am 02:53 Clear 66 18.9 59 15 78 78 N 3 6 30.08 1019 10 16 0.00 0.00
3:53 am 03:53 Partly Cloudy 65 18.3 60 15.6 84 84 N 5 7 30.08 1019 10 16 0.00 0.00
4:53 am 04:53 Mostly Clear 65 18.3 59 15 81 81 N 3 6 30.09 1019 10 16 0.00 0.00
5:53 am 05:53 Mostly Cloudy 65 18.3 60 15.6 84 84 N 5 7 30.10 1019 10 16 0.00 0.00
6:53 am 06:53 Mostly Cloudy 66 18.9 61 16.1 84 84 N 6 9 30.11 1020 10 16 0.00 0.00
7:53 am 07:53 Cloudy 69 20.6 63 17.2 81 81 NNE 7 11 30.12 1020 10 16 0.00 0.00
8:53 am 08:53 Cloudy 74 23.3 62 16.7 67 67 NE 9 15 30.13 1020 10 16 0.00 0.00
9:53 am 09:53 Partly Cloudy 76 24.4 61 16.1 60 60 undefined N/A 30.13 1020 10 16 0.00 0.00
10:53 am 10:53 Sunny 79 26.1 62 16.7 56 56 E 8 13 30.12 1020 10 16 0.00 0.00
11:53 am 11:53 Sunny 81 27.2 64 17.8 57 57 NNE 8 13 30.13 1020 10 16 0.00 0.00
12:53 pm 12:53 Sunny 82 27.8 64 17.8 55 55 Calm 30.12 1020 10 16 0.00 0.00
1:53 pm 13:53 Partly Cloudy 82 27.8 64 17.8 55 55 VRB 6 9 30.10 1019 10 16 0.00 0.00
2:53 pm 14:53 Partly Cloudy 85 29.4 65 18.3 51 51 NNE 10 17 30.08 1019 10 16 0.00 0.00
3:53 pm 15:53 Partly Cloudy 85 29.4 64 17.8 50 50 N 8 13 30.06 1018 10 16 0.00 0.00
4:53 pm 16:53 Mostly Sunny 84 28.9 62 16.7 48 48 VRB 6 9 30.04 1017 10 16 0.00 0.00
5:53 pm 17:53 Mostly Sunny 85 29.4 63 17.2 48 48 undefined N/A 30.03 1017 10 16 0.00 0.00
6:53 pm 18:53 Cloudy 82 27.8 63 17.2 53 53 N 10 17 30.03 1017 10 16 0.00 0.00
7:53 pm 19:53 Cloudy 80 26.7 62 16.7 54 54 N 9 15 30.04 1017 10 16 0.00 0.00
8:53 pm 20:53 Cloudy 76 24.4 65 18.3 69 69 S 6 9 30.06 1018 10 16 0.00 0.00
9:53 pm 21:53 Cloudy with Rain 72 22.2 65 18.3 79 79 NNE 3 6 30.07 1018 6 10 0.02 0.51
10:53 pm 22:53 Cloudy 71 21.7 69 20.6 94 94 Calm 30.07 1018 10 16 0.00 0.00
11:53 pm 23:53 Cloudy 72 22.2 67 19.4 84 84 Calm 30.05 1018 10 16 0.00 0.00

Powered by AerisWeather